Regional Weather Roundup
Issued by NWS Upton, NY

Current Version | Previous Version | Text Only | Print | Product List | Glossary Off
Versions: 1 2 3 4 5 6 7 8 9 10 11 12 13 14 15 16 17 18 19 20 21 22 23 24 25 26 27 28 29 30 31 32 33 34 35 36 37 38 39 40 41 42 43 44 45 46 47 48 49 50
000 ASUS41 KOKX 202309 RWROKX REGIONAL WEATHER ROUNDUP NATIONAL WEATHER SERVICE NEW YORK NY 700 PM EDT THU JUL 20 2017 NOTE: "FAIR" INDICATES FEW OR NO CLOUDS BELOW 12,000 FEET WITH NO SIGNIFICANT WEATHER AND/OR OBSTRUCTIONS TO VISIBILITY. NYZ071-072-176-178-NJZ106-104-210000- NEW YORK CITY METRO AREA CITY SKY/WX TMP DP RH WIND PRES REMARKS Central Park CLOUDY 90 65 43 W8 29.90R HX 92 Bronx Bot Gard N/A 90 63 40 N5 29.87S HX 90 LaGuardia APRT CLOUDY 93 65 39 W17 29.85S HX 95 Kennedy INTL CLOUDY 84 77 79 S7 29.87S HX 94 Breezy Point N/A 82 N/A N/A W6 N/A Newark/Liberty CLOUDY 91 66 43 W12 29.86S HX 93 Teterboro CLOUDY 90 66 45 NW10 29.86R HX 92 $$ NYZ177-179-078>081-210000- LONG ISLAND NEW YORK CITY SKY/WX TMP DP RH WIND PRES REMARKS Jones Beach N/A 79 N/A N/A SW7G14 N/A Matinecock PT N/A 86 N/A N/A SW5 N/A Farmingdale CLOUDY 82 75 79 SW9 29.87F MacArthur/ISP CLOUDY 82 76 81 SW13 29.87F Shirley PTSUNNY 83 76 79 SW9 29.88F HX 91 Mt Sinai Harb N/A 84 N/A N/A S7 N/A Westhampton CLOUDY 80 73 79 SW8 29.89F East Hampton FAIR 79 74 84 SW8 29.87S Montauk N/A 80 75 84 SW7 29.88S $$ NYZ052-065-067-210000- HUDSON VALLEY CITY SKY/WX TMP DP RH WIND PRES REMARKS White Plains NOT AVBL Larchmont Harb N/A 84 N/A N/A SW3 N/A Croton O-T Hud N/A 86 N/A N/A W8 N/A Newburgh TSTM 77 73 88 NW21G30 29.96R Montgomery RAIN 72 69 90 N18 29.93R FOG Poughkeepsie CLOUDY 83 69 62 W10 29.85S Albany CLOUDY 78 62 57 W7 29.85F $$ NJZ001-105-106-008-010-013-015-019>022-104-210000- NEW JERSEY CITY SKY/WX TMP DP RH WIND PRES REMARKS Newark/Liberty CLOUDY 91 66 43 W12 29.86S HX 93 Teterboro CLOUDY 90 66 45 NW10 29.86R HX 92 Caldwell CLOUDY 88 68 51 W3 29.88R HX 91 Somerville CLOUDY 85 71 63 CALM 29.86S HX 90 Linden NOT AVBL Perth Amboy N/A 90 N/A N/A W8 N/A Sussex LGT RAIN 79 73 82 W17G31 29.93R Andover N/A 80 72 76 NW7 29.94R Trenton PTSUNNY 91 70 49 W9 29.87S HX 96 Millville SUNNY 86 76 71 VRB3 29.89F HX 96 Atlantic City MOSUNNY 91 74 57 S8 29.89F HX 100 Wrightstown MOSUNNY 92 69 46 W12 29.85R HX 97 Toms River PTSUNNY 95 68 41 W13 29.88S HX 99 Belmar CLOUDY 89 73 59 W5 29.88S HX 97 $$ PAZ047>061-062-071-210000- EASTERN PENNSYLVANIA CITY SKY/WX TMP DP RH WIND PRES REMARKS Philadelphia MOSUNNY 94 69 44 SW13 29.87F HX 99 Allentown MOSUNNY 90 70 51 W14 29.91R HX 95 Scranton LGT RAIN 73 71 93 CALM 29.95S $$ CTZ002-004>006-009-010-012-RIZ004-006-007-MAZ004-011-015-210000- SOUTHERN NEW ENGLAND IN CT CITY SKY/WX TMP DP RH WIND PRES REMARKS Bradley INTL PTSUNNY 74 70 87 S6 29.84F Hartford LGT RAIN 79 68 69 N5 29.84R Danbury CLOUDY 83 73 72 SW3 29.89S Wtrbury/Oxford PTSUNNY 84 68 58 W5 29.91S Bridgeport CLOUDY 85 74 69 S10 29.85F HX 92 Meriden CLOUDY 85 70 60 S5 29.85S New Haven CLOUDY 83 74 74 SW5 29.86S Chester FAIR 84 72 65 VRB6 29.87F Groton CLOUDY 76 71 85 SW7 29.85S Wilimantic HVY RAIN 77 72 84 N14G29 29.87R IN RI CITY SKY/WX TMP DP RH WIND PRES REMARKS Providence CLOUDY 83 72 69 SW7 29.85S Block Island MOSUNNY 77 74 90 SW15 29.87F Westerly CLOUDY 80 73 79 SW8 29.87S IN MA CITY SKY/WX TMP DP RH WIND PRES REMARKS Boston CLOUDY 88 65 46 W10 29.81S HX 90 Worcester CLOUDY 81 67 62 SW6 29.87F Westfield CLOUDY 80 67 64 SW7 29.83F Provincetown PTSUNNY 77 65 66 SW14 29.83F Nantucket FOG 72 72 100 SW9 29.87S VSB 1/4 $$ ANZ330-335-338-340-345-350-353-355-210000- COASTAL MARINE OBSERVATIONS STATION/POSITION TIME SKY/WX TEMP WIND PRES VSBY WAVE AIR SEA DIR/SP/G HT/PER (UTC) (F) (DEG/KT/KT) (MB) (MI) (FT/S) NY HARB ENTRANCE 2150 79 76 200/ 8/ 10 1011.1 2/14 20 S FIRE ISLAND 2150 79 77 200/ 12/ 14 1011.1 3/16 GREAT SOUTH BAY 2230 80 82 200/ 14/ 17 N/A 23 SSW MONTAUK P 2150 78 77 1012.1 2/11 15 E BARNEGAT LI 2230 79 N/A 4/ 4 HUDSON CANYON 2150 80 80 220/ 16/ 17 1011.6 3/15 KINGS POINT 2224 83 74 230/ 4/ 6 1010.8 EXECUTION ROCKS 2245 83 190/ 6/ 8 N/A CENTRAL LI SOUND NOT AVBL EASTERN LI SOUND NOT AVBL ROBBINS REEF 2224 290/ 15/ 16 1011.5 $$ >>>>>>>>>>>>>>>>>>>>>>>>>>>> KEY <<<<<<<<<<<<<<<<<<<<<<<<<<< > < > SKY/WX - Sky Condition/Present Weather < > TMP - Temperature in Fahrenheit < > DP - Dew Point in Fahrenheit < > RH - Relative Humidity in Percent < > WIND - Direction (from) and Speed in MPH < > PRES - Mean Sea Level Pressure (inches of Hg) < > WCI - Wind Chill Index < > VSB - VISIBILITY IN MILES < > HX - HEAT INDEX < > TC - TEMPERATURE IN CELSIUS < > VRB - VARIABLE WIND DIRECTION < > < >>>>>>>>>>>>>>>>>>>>>>>>>>>> KEY <<<<<<<<<<<<<<<<<<<<<<<<<<<

USA.gov is the U.S. government's official web portal to all federal, state and local government web resources and services.